Regional Weather Roundup
Issued by NWS Green Bay, WI

Home | Current Version | Previous Version | Graphics & Text | Print | Product List | Glossary Off
Versions: 1 2 3 4 5 6 7 8 9 10 11 12 13 14 15 16 17 18 19 20 21 22 23 24 25 26 27 28 29 30 31 32 33 34 35 36 37 38 39 40 41 42 43 44 45 46 47 48 49 50

000
ASUS43 KGRB 091511
RWRGRB

NORTH-CENTRAL AND NORTHEAST WISCONSIN REGIONAL WEATHER ROUNDUP
NATIONAL WEATHER SERVICE GREEN BAY WI
900 AM CST FRI DEC 09 2016

WIZ005-009-010>012-018-019-091600-
NORTH CENTRAL WISCONSIN

CITY           SKY/WX    TMP DP  RH WIND       PRES   REMARKS
IRONWOOD       LGT SNOW  16  10  79 W15       30.43R WCI   1
MANITOWISH WTR CLOUDY    13   9  83 W9        30.39R WCI   1
ARBOR VITAE    SUNNY     17  10  76 NW9       30.39R WCI   5
EAGLE RIVER    FLURRIES  14   8  76 NW8       30.37R WCI   3
LAND O LAKES   LGT SNOW  15  10  83 W5        30.38R WCI   7
RHINELANDER    SUNNY     13   8  81 W9        30.40R WCI   1
PHILLIPS       CLOUDY    10   7  87 W3        30.43R
ANTIGO         SUNNY     12   8  81 NW10      30.41R WCI  -1
TOMAHAWK       FLURRIES  11   8  87 W6        30.43R WCI   2
MERRILL        SUNNY     13   8  79 NW8       30.45R WCI   2
$$

WIZ013-073-091600-
NORTHEAST WISCONSIN

CITY           SKY/WX    TMP DP  RH WIND       PRES   REMARKS
IRON MOUNTAIN  PTSUNNY   17   9  70 NW13      30.36R WCI   4
MARINETTE      MOSUNNY   20  11  68 NW8G16    30.42R
OCONTO         SUNNY     20  12  70 W9        30.43R WCI  10
$$

WIZ017-030-035>037-045-091600-
CENTRAL WISCONSIN

CITY           SKY/WX    TMP DP  RH WIND       PRES   REMARKS
MEDFORD        CLOUDY    10   6  84 NW6       30.44R WCI   0
WAUSAU         SUNNY     13   9  84 W10       30.45R WCI   0
MOSINEE        MOSUNNY   12  10  92 NW8       30.47R WCI   1
MARSHFIELD     CLOUDY    11   6  81 NW8       30.47R WCI  -1
WISC RAPIDS    SUNNY     14   9  80 NW8       30.51R WCI   3
STEVENS POINT  SUNNY     13   8  81 NW7       30.48R WCI   3
WAUPACA        SUNNY     21  12  68 CALM      30.48R
SHAWANO        SUNNY     21  10  63 NW8       30.46R
CLINTONVILLE   SUNNY     19   9  63 NW12      30.46R WCI   7
WAUTOMA        NOT AVBL
$$

WIZ038-039-048-051-091600-
FOX VALLEY

CITY           SKY/WX    TMP DP  RH WIND       PRES   REMARKS
NWS GREEN BAY  SUNNY     24  14  65 W13       30.45R
APPLETON       SUNNY     19   9  63 NW10      30.43R WCI   8
OSHKOSH        SUNNY     20  12  71 W13       30.47R WCI   7
FOND DU LAC    SUNNY     20  11  68 W13       30.48R WCI   7
$$

WIZ022-050-052-091600-
EAST CENTRAL WISCONSIN

CITY           SKY/WX    TMP DP  RH WIND       PRES   REMARKS
EPHRAIM        FAIR      21  13  71 NW9G17    30.38R
WASHINGTON ISL CLOUDY    25  16  69 NW10G17   30.37R
STURGEON BAY   SUNNY     22  11  62 NW15G22   30.42R WCI   9
MANITOWOC      CLOUDY    23  15  71 W12       30.45R
SHEBOYGAN      CLOUDY    21  15  78 W9        30.45R
$$

LMZ563-521-522-541>543-091600-
LAKESHORE

STATION/POSITION TIME  TEMP    WIND        PRES    VSBY  WAVE
                       AIR SEA DIR/SP/G                  HT/PER
                 (UTC) (F)     (DEG/KT/KT) (MB)    (MI)  (FT/S)
SHEBOYGAN LKSHOR 1500   22     270/  9/ 11 1032.3R
KEWAUNEE LKSHORE 1448   22     300/  9/ 14 1029.6R
ALGOMA MARINA    1436          310/ 13/ 16   N/A
NORTHPORT PIER   1446   26     310/ 17/ 25 1028.4R
SISTER BAY LKSHO 1450   24     320/ 19/ 22   N/A
CHAMBERS ISLAND  1440   23     290/  6/ 14 1028.4R
MENOMINEE LKSHOR 1448   20     280/ 13/ 17 1028.9R
$$




USA.gov is the U.S. government's official web portal to all federal, state and local government web resources and services.